TimeEDT,TemperatureF,Dew PointF,Humidity,Sea Level PressureIn,VisibilityMPH,Wind Direction,Wind SpeedMPH,Gust SpeedMPH,PrecipitationIn,Events,Conditions,WindDirDegrees,DateUTC
12:54 AM,61.0,57.9,90,29.96,-9999.0,North,-9999.0,-,N/A,,Unknown,0,2013-07-28 04:54:00
1:54 AM,59.0,57.9,96,29.97,-9999.0,North,-9999.0,-,N/A,,Unknown,0,2013-07-28 05:54:00
2:54 AM,59.0,57.0,93,29.97,-9999.0,North,-9999.0,-,N/A,,Unknown,0,2013-07-28 06:54:00
3:54 AM,59.0,57.0,93,29.98,-9999.0,North,-9999.0,-,N/A,,Unknown,0,2013-07-28 07:54:00
4:54 AM,57.9,55.9,93,29.96,-9999.0,North,-9999.0,-,N/A,,Unknown,0,2013-07-28 08:54:00
5:54 AM,57.9,57.0,97,29.98,-9999.0,North,-9999.0,-,N/A,,Unknown,0,2013-07-28 09:54:00
6:54 AM,57.9,57.0,97,29.98,-9999.0,North,-9999.0,-,N/A,,Unknown,0,2013-07-28 10:54:00
7:54 AM,61.0,57.9,90,29.99,-9999.0,North,-9999.0,-,N/A,,Unknown,0,2013-07-28 11:54:00
8:54 AM,63.0,59.0,87,29.98,-9999.0,North,-9999.0,-,N/A,,Unknown,0,2013-07-28 12:54:00
9:54 AM,66.9,61.0,81,29.97,-9999.0,North,-9999.0,-,N/A,,Unknown,0,2013-07-28 13:54:00
10:54 AM,71.1,62.1,73,29.96,-9999.0,North,-9999.0,-,N/A,,Unknown,0,2013-07-28 14:54:00
11:54 AM,73.0,61.0,66,29.95,-9999.0,North,-9999.0,-,N/A,,Unknown,0,2013-07-28 15:54:00
12:54 PM,75.9,61.0,60,29.93,-9999.0,North,-9999.0,-,N/A,,Unknown,0,2013-07-28 16:54:00
1:54 PM,75.9,61.0,60,29.93,-9999.0,North,-9999.0,-,N/A,,Unknown,0,2013-07-28 17:54:00
2:54 PM,77.0,61.0,58,29.93,-9999.0,North,-9999.0,-,N/A,,Unknown,0,2013-07-28 18:54:00
3:54 PM,77.0,61.0,58,29.92,-9999.0,North,-9999.0,-,N/A,,Unknown,0,2013-07-28 19:54:00
4:54 PM,75.9,63.0,64,29.91,-9999.0,North,-9999.0,-,N/A,,Unknown,0,2013-07-28 20:54:00
5:54 PM,75.0,64.9,71,29.91,-9999.0,North,-9999.0,-,N/A,,Unknown,0,2013-07-28 21:54:00
6:54 PM,69.1,64.0,84,29.92,-9999.0,North,-9999.0,-,N/A,,Unknown,0,2013-07-28 22:54:00
7:54 PM,66.9,64.0,90,29.94,-9999.0,North,-9999.0,-,N/A,,Unknown,0,2013-07-28 23:54:00
8:54 PM,66.9,64.9,93,29.94,-9999.0,North,-9999.0,-,N/A,,Unknown,0,2013-07-29 00:54:00
9:54 PM,66.9,64.9,93,29.95,-9999.0,North,-9999.0,-,N/A,,Unknown,0,2013-07-29 01:54:00
10:54 PM,66.0,64.0,93,29.94,-9999.0,North,-9999.0,-,N/A,,Unknown,0,2013-07-29 02:54:00
11:54 PM,66.0,64.0,93,29.94,-9999.0,North,-9999.0,-,N/A,,Unknown,0,2013-07-29 03:54:00